Location: Gajan
(43.0218°N, 1.1244°E)
Time: 03:22:10
(UTC+00:00)

ATLAS 5 CENTAUR R/B - Pass Details

Date: 22 April 2021
Orbit: 257 x 14165 km, 60.8° (Epoch: 14 May)

Event Time Altitude Azimuth Distance (km) Brightness Sun altitude
Rises 19:47:49 0° 315° (NW) 1,891 6.3 -11.1°
Reaches altitude 10° 19:49:24 10° 309° (NW) 1,055 4.8 -11.4°
Maximum altitude 19:51:15 52° 230° (SW) 385 1.2 -11.7°
Enters shadow 19:53:16 15° 155° (SSE) 1,193 3.1 -12.0°
